DAL2351 KDTW-KMKE

Flight info

Callsign DAL2351
Flight time 0h 51m
Altitude 32000
Route MIGGY3 GETCH LYSTR SUDDS
Aircraft A320/M-SDE3FGHIRWY/LB1

Departure

Time 2026-04-22 11:07
Airport Detroit Metropolitan Wayne County Airport (KDTW)

Arrival

Time 2026-04-22 11:58
Airport General Mitchell International Airport (KMKE)
Time Latitude Longitude Altitude Speed Heading
2026-04-22 10:30 42.20435 -83.36031 647 ft 0 kts 297°
2026-04-22 10:50 42.20432 -83.36024 646 ft 4 kts 296°
2026-04-22 10:50 42.20422 -83.35991 649 ft 4 kts 274°
2026-04-22 10:50 42.20427 -83.35960 650 ft 3 kts 214°
2026-04-22 10:50 42.20431 -83.35957 648 ft 0 kts 208°
2026-04-22 10:52 42.20429 -83.35958 646 ft 2 kts 208°
2026-04-22 10:53 42.20402 -83.35978 647 ft 7 kts 208°
2026-04-22 10:53 42.20343 -83.36021 646 ft 12 kts 208°
2026-04-22 10:53 42.20256 -83.36085 646 ft 16 kts 208°
2026-04-22 10:53 42.20172 -83.36118 646 ft 12 kts 148°
2026-04-22 10:54 42.20162 -83.36005 646 ft 13 kts 87°
2026-04-22 10:54 42.20166 -83.35878 646 ft 14 kts 88°
2026-04-22 10:54 42.20168 -83.35738 648 ft 15 kts 89°
2026-04-22 10:54 42.20170 -83.35608 646 ft 13 kts 89°
2026-04-22 10:55 42.20172 -83.35498 647 ft 11 kts 89°
2026-04-22 10:55 42.20174 -83.35388 647 ft 13 kts 88°
2026-04-22 10:55 42.20176 -83.35243 647 ft 17 kts 89°
2026-04-22 10:55 42.20179 -83.35070 647 ft 17 kts 88°
2026-04-22 10:56 42.20198 -83.34965 647 ft 10 kts 40°
2026-04-22 10:56 42.20255 -83.34922 647 ft 9 kts 28°
2026-04-22 10:56 42.20318 -83.34876 647 ft 13 kts 28°
2026-04-22 10:56 42.20412 -83.34807 647 ft 18 kts 28°
2026-04-22 10:57 42.20527 -83.34722 648 ft 20 kts 28°
2026-04-22 10:57 42.20656 -83.34628 647 ft 22 kts 28°
2026-04-22 10:57 42.20791 -83.34528 647 ft 18 kts 29°
2026-04-22 10:57 42.20905 -83.34445 647 ft 19 kts 28°
2026-04-22 10:58 42.21023 -83.34358 649 ft 20 kts 28°
2026-04-22 10:58 42.21149 -83.34265 647 ft 21 kts 29°
2026-04-22 10:58 42.21283 -83.34166 647 ft 23 kts 29°
2026-04-22 10:58 42.21420 -83.34065 647 ft 23 kts 28°
2026-04-22 10:59 42.21552 -83.33968 647 ft 21 kts 28°
2026-04-22 10:59 42.21681 -83.33872 645 ft 19 kts 29°
2026-04-22 10:59 42.21802 -83.33783 644 ft 21 kts 28°
2026-04-22 10:59 42.21897 -83.33714 646 ft 13 kts 28°
2026-04-22 11:00 42.21963 -83.33716 647 ft 9 kts 314°
2026-04-22 11:00 42.21995 -83.33791 647 ft 11 kts 298°
2026-04-22 11:00 42.22037 -83.33895 647 ft 15 kts 299°
2026-04-22 11:00 42.22084 -83.33980 647 ft 11 kts 341°
2026-04-22 11:01 42.22163 -83.33935 648 ft 14 kts 28°
2026-04-22 11:01 42.22262 -83.33862 647 ft 18 kts 28°
2026-04-22 11:01 42.22379 -83.33778 649 ft 20 kts 28°
2026-04-22 11:01 42.22510 -83.33682 647 ft 20 kts 28°
2026-04-22 11:02 42.22620 -83.33602 647 ft 19 kts 28°
2026-04-22 11:02 42.22716 -83.33530 647 ft 9 kts 29°
2026-04-22 11:02 42.22766 -83.33511 646 ft 7 kts 352°
2026-04-22 11:02 42.22775 -83.33525 647 ft 0 kts 296°
2026-04-22 11:04 42.22776 -83.33528 646 ft 1 kts 296°
2026-04-22 11:04 42.22778 -83.33534 646 ft 0 kts 296°
2026-04-22 11:04 42.22783 -83.33544 646 ft 3 kts 299°
2026-04-22 11:05 42.22804 -83.33596 645 ft 6 kts 299°
2026-04-22 11:05 42.22797 -83.33638 647 ft 4 kts 226°
2026-04-22 11:05 42.22779 -83.33653 646 ft 2 kts 208°
2026-04-22 11:05 42.22772 -83.33658 645 ft 0 kts 208°
2026-04-22 11:06 42.22700 -83.33710 647 ft 42 kts 208°
2026-04-22 11:06 42.22230 -83.34056 648 ft 110 kts 209°
2026-04-22 11:06 42.21390 -83.34690 676 ft 160 kts 211°
2026-04-22 11:06 42.20422 -83.35453 1215 ft 163 kts 210°
2026-04-22 11:07 42.19468 -83.36272 1892 ft 163 kts 223°
2026-04-22 11:07 42.18863 -83.37574 2653 ft 168 kts 241°
2026-04-22 11:07 42.18336 -83.39089 3001 ft 191 kts 243°
2026-04-22 11:07 42.17738 -83.40812 3373 ft 215 kts 244°
2026-04-22 11:08 42.17072 -83.42734 3900 ft 235 kts 245°
2026-04-22 11:08 42.16369 -83.44762 4726 ft 243 kts 247°
2026-04-22 11:08 42.15645 -83.46851 5592 ft 248 kts 248°
2026-04-22 11:08 42.14908 -83.48970 6491 ft 251 kts 249°
2026-04-22 11:09 42.14174 -83.51092 7323 ft 255 kts 251°
2026-04-22 11:09 42.13767 -83.53397 8147 ft 254 kts 270°
2026-04-22 11:09 42.14014 -83.55761 8978 ft 257 kts 290°
2026-04-22 11:09 42.14885 -83.57867 9812 ft 261 kts 306°
2026-04-22 11:10 42.16012 -83.59847 10375 ft 276 kts 306°
2026-04-22 11:10 42.17219 -83.61990 10631 ft 299 kts 306°
2026-04-22 11:10 42.18490 -83.64250 11374 ft 301 kts 306°
2026-04-22 11:10 42.19751 -83.66489 12268 ft 300 kts 306°
2026-04-22 11:11 42.21144 -83.68607 13122 ft 303 kts 316°
2026-04-22 11:11 42.22879 -83.70252 13916 ft 309 kts 328°
2026-04-22 11:11 42.24900 -83.71309 14609 ft 316 kts 341°
2026-04-22 11:11 42.27060 -83.71847 15288 ft 321 kts 345°
2026-04-22 11:12 42.29270 -83.72353 15971 ft 323 kts 345°
2026-04-22 11:12 42.31495 -83.72862 16647 ft 325 kts 345°
2026-04-22 11:12 42.33737 -83.73374 17315 ft 328 kts 345°
2026-04-22 11:12 42.35994 -83.73891 17994 ft 330 kts 345°
2026-04-22 11:13 42.38267 -83.74413 18618 ft 332 kts 345°
2026-04-22 11:13 42.40560 -83.74942 19182 ft 335 kts 345°
2026-04-22 11:13 42.42869 -83.75474 19747 ft 338 kts 345°
2026-04-22 11:13 42.45135 -83.75996 20297 ft 340 kts 345°
2026-04-22 11:14 42.47480 -83.76539 20859 ft 343 kts 345°
2026-04-22 11:14 42.49839 -83.77086 21414 ft 346 kts 345°
2026-04-22 11:14 42.52227 -83.77638 21980 ft 349 kts 345°
2026-04-22 11:14 42.54628 -83.78195 22547 ft 352 kts 345°
2026-04-22 11:15 42.57053 -83.78758 23090 ft 355 kts 346°
2026-04-22 11:15 42.59489 -83.79346 23627 ft 357 kts 344°
2026-04-22 11:15 42.61928 -83.80055 24068 ft 359 kts 343°
2026-04-22 11:15 42.64363 -83.80845 24521 ft 361 kts 342°
2026-04-22 11:16 42.66806 -83.81672 24970 ft 363 kts 342°
2026-04-22 11:16 42.69238 -83.82500 25409 ft 365 kts 342°
2026-04-22 11:16 42.71707 -83.83335 25840 ft 367 kts 342°
2026-04-22 11:16 42.74191 -83.84162 26265 ft 368 kts 342°
2026-04-22 11:17 42.75828 -83.84768 26532 ft 368 kts 338°
2026-04-22 11:17 42.78914 -83.86743 27064 ft 367 kts 326°
2026-04-22 11:17 42.80929 -83.88846 27459 ft 367 kts 316°
2026-04-22 11:17 42.82774 -83.91284 27840 ft 369 kts 315°
2026-04-22 11:18 42.84620 -83.93740 28214 ft 371 kts 315°
2026-04-22 11:18 42.86471 -83.96203 28580 ft 373 kts 316°
2026-04-22 11:18 42.88339 -83.98683 28953 ft 375 kts 316°
2026-04-22 11:18 42.90217 -84.01170 29300 ft 377 kts 316°
2026-04-22 11:19 42.92106 -84.03672 29653 ft 380 kts 316°
2026-04-22 11:19 42.94004 -84.06189 29984 ft 381 kts 316°
2026-04-22 11:19 42.95907 -84.08719 30282 ft 383 kts 316°
2026-04-22 11:19 42.97827 -84.11268 30563 ft 385 kts 316°
2026-04-22 11:20 42.99750 -84.13824 30841 ft 387 kts 316°
2026-04-22 11:20 43.01677 -84.16388 31105 ft 388 kts 316°
2026-04-22 11:20 43.03613 -84.18972 31400 ft 389 kts 316°
2026-04-22 11:20 43.05521 -84.21522 31770 ft 387 kts 316°
2026-04-22 11:21 43.07445 -84.24097 31987 ft 387 kts 316°
2026-04-22 11:21 43.11327 -84.29297 32026 ft 394 kts 316°
2026-04-22 11:22 43.15301 -84.34635 32026 ft 405 kts 316°
2026-04-22 11:22 43.19341 -84.40068 32027 ft 408 kts 316°
2026-04-22 11:23 43.22705 -84.46304 32030 ft 413 kts 296°
2026-04-22 11:23 43.23557 -84.50086 32030 ft 419 kts 284°
2026-04-22 11:23 43.23765 -84.54108 32033 ft 428 kts 273°
2026-04-22 11:24 43.23447 -84.62224 32031 ft 429 kts 272°
2026-04-22 11:24 43.23121 -84.70395 32021 ft 429 kts 272°
2026-04-22 11:25 43.22787 -84.78579 32017 ft 430 kts 272°
2026-04-22 11:25 43.22438 -84.86765 32009 ft 430 kts 272°
2026-04-22 11:26 43.22091 -84.94947 32003 ft 430 kts 272°
2026-04-22 11:26 43.21745 -85.03074 31995 ft 430 kts 272°
2026-04-22 11:27 43.21387 -85.11255 31994 ft 430 kts 272°
2026-04-22 11:27 43.21025 -85.19431 31983 ft 430 kts 272°
2026-04-22 11:28 43.20662 -85.27625 31991 ft 430 kts 272°
2026-04-22 11:28 43.20290 -85.35813 31978 ft 430 kts 271°
2026-04-22 11:29 43.19904 -85.43997 31978 ft 431 kts 271°
2026-04-22 11:29 43.19512 -85.52201 31979 ft 431 kts 271°
2026-04-22 11:30 43.19122 -85.60389 31981 ft 431 kts 271°
2026-04-22 11:30 43.18723 -85.68593 31981 ft 431 kts 271°
2026-04-22 11:31 43.18320 -85.76796 31989 ft 431 kts 271°
2026-04-22 11:31 43.17916 -85.85000 31990 ft 431 kts 271°
2026-04-22 11:32 43.17498 -85.93203 31987 ft 432 kts 271°
2026-04-22 11:32 43.17067 -86.01350 31988 ft 431 kts 271°
2026-04-22 11:33 43.16703 -86.09564 31993 ft 430 kts 273°
2026-04-22 11:33 43.16609 -86.17740 31985 ft 429 kts 274°
2026-04-22 11:34 43.16572 -86.25952 31985 ft 434 kts 275°
2026-04-22 11:34 43.16478 -86.34249 31997 ft 436 kts 274°
2026-04-22 11:35 43.16337 -86.42564 32000 ft 436 kts 274°
2026-04-22 11:35 43.16180 -86.50873 31998 ft 436 kts 274°
2026-04-22 11:36 43.16027 -86.59192 32001 ft 436 kts 274°
2026-04-22 11:36 43.15880 -86.67452 32009 ft 437 kts 274°
2026-04-22 11:37 43.15729 -86.75793 32014 ft 437 kts 274°
2026-04-22 11:37 43.15570 -86.84116 31912 ft 432 kts 274°
2026-04-22 11:37 43.15481 -86.88158 31655 ft 418 kts 274°
2026-04-22 11:38 43.15394 -86.92095 31407 ft 411 kts 274°
2026-04-22 11:38 43.15309 -86.96006 31158 ft 410 kts 274°
2026-04-22 11:38 43.15144 -87.03802 30526 ft 408 kts 274°
2026-04-22 11:39 43.15089 -87.06371 30129 ft 406 kts 273°
2026-04-22 11:39 43.15004 -87.10230 29442 ft 404 kts 273°
2026-04-22 11:39 43.14917 -87.14056 28822 ft 400 kts 273°
2026-04-22 11:39 43.14797 -87.19094 27958 ft 397 kts 273°
2026-04-22 11:40 43.14707 -87.22881 27181 ft 398 kts 272°
2026-04-22 11:40 43.14647 -87.25441 26777 ft 396 kts 272°
2026-04-22 11:40 43.14556 -87.29197 26180 ft 393 kts 272°
2026-04-22 11:40 43.14461 -87.32920 25585 ft 391 kts 272°
2026-04-22 11:41 43.14365 -87.36626 25002 ft 388 kts 272°
2026-04-22 11:41 43.14274 -87.40357 24254 ft 396 kts 272°
2026-04-22 11:41 43.14185 -87.44138 23465 ft 399 kts 272°
2026-04-22 11:41 43.14091 -87.47896 22639 ft 399 kts 271°
2026-04-22 11:42 43.13991 -87.51693 21883 ft 398 kts 271°
2026-04-22 11:42 43.13892 -87.55364 21147 ft 398 kts 271°
2026-04-22 11:42 43.13787 -87.59119 20385 ft 389 kts 271°
2026-04-22 11:42 43.13681 -87.62810 19656 ft 389 kts 271°
2026-04-22 11:43 43.13578 -87.66517 18911 ft 391 kts 270°
2026-04-22 11:43 43.13477 -87.70254 18141 ft 393 kts 270°
2026-04-22 11:43 43.13375 -87.74007 17348 ft 395 kts 270°
2026-04-22 11:43 43.13269 -87.77716 16641 ft 384 kts 270°
2026-04-22 11:44 43.13160 -87.81295 15889 ft 370 kts 270°
2026-04-22 11:44 43.13053 -87.84776 15220 ft 360 kts 270°
2026-04-22 11:44 43.12950 -87.88092 15006 ft 335 kts 270°
2026-04-22 11:44 43.12852 -87.91163 14881 ft 311 kts 270°
2026-04-22 11:45 43.12762 -87.94049 14533 ft 299 kts 270°
2026-04-22 11:45 43.12679 -87.96883 14254 ft 296 kts 270°
2026-04-22 11:45 43.12598 -87.99690 13926 ft 295 kts 270°
2026-04-22 11:45 43.12518 -88.02506 13462 ft 298 kts 270°
2026-04-22 11:46 43.12434 -88.05326 12984 ft 294 kts 270°
2026-04-22 11:46 43.12345 -88.08092 12520 ft 288 kts 270°
2026-04-22 11:46 43.12257 -88.10791 12067 ft 285 kts 270°
2026-04-22 11:46 43.12168 -88.13500 11625 ft 285 kts 270°
2026-04-22 11:47 43.12079 -88.16221 11179 ft 287 kts 269°
2026-04-22 11:47 43.11849 -88.18932 10709 ft 289 kts 255°
2026-04-22 11:47 43.10882 -88.21300 10273 ft 285 kts 230°
2026-04-22 11:47 43.09282 -88.22817 10030 ft 276 kts 204°
2026-04-22 11:48 43.07439 -88.23255 10012 ft 269 kts 180°
2026-04-22 11:48 43.05618 -88.22655 9933 ft 274 kts 155°
2026-04-22 11:48 43.04006 -88.21247 9735 ft 275 kts 147°
2026-04-22 11:48 43.02426 -88.19767 9374 ft 275 kts 148°
2026-04-22 11:49 43.00850 -88.18290 9013 ft 275 kts 148°
2026-04-22 11:49 42.99278 -88.16817 8650 ft 274 kts 148°
2026-04-22 11:49 42.97710 -88.15347 8299 ft 273 kts 148°
2026-04-22 11:49 42.96153 -88.13888 7950 ft 272 kts 148°
2026-04-22 11:50 42.94595 -88.12429 7601 ft 271 kts 148°
2026-04-22 11:50 42.93049 -88.10979 7261 ft 270 kts 148°
2026-04-22 11:50 42.91517 -88.09543 6908 ft 263 kts 148°
2026-04-22 11:50 42.90022 -88.08146 6576 ft 259 kts 148°
2026-04-22 11:51 42.88559 -88.06784 6243 ft 257 kts 148°
2026-04-22 11:51 42.87088 -88.05412 5896 ft 257 kts 148°
2026-04-22 11:51 42.85620 -88.04046 5535 ft 251 kts 148°
2026-04-22 11:51 42.84200 -88.02721 5194 ft 243 kts 148°
2026-04-22 11:52 42.82824 -88.01441 4854 ft 236 kts 148°
2026-04-22 11:52 42.81488 -88.00200 4494 ft 229 kts 148°
2026-04-22 11:52 42.80192 -87.98997 4145 ft 222 kts 148°
2026-04-22 11:52 42.78927 -87.97823 3848 ft 217 kts 148°
2026-04-22 11:53 42.77691 -87.96676 3501 ft 214 kts 148°
2026-04-22 11:53 42.76472 -87.95545 3149 ft 211 kts 147°
2026-04-22 11:53 42.75299 -87.94351 2805 ft 211 kts 133°
2026-04-22 11:53 42.74750 -87.92572 2702 ft 208 kts 88°
2026-04-22 11:54 42.75267 -87.90833 2713 ft 204 kts 41°
2026-04-22 11:54 42.76518 -87.90139 2704 ft 196 kts 354°
2026-04-22 11:54 42.77773 -87.90743 2705 ft 193 kts 331°
2026-04-22 11:54 42.79009 -87.91459 2703 ft 195 kts 340°
2026-04-22 11:55 42.80349 -87.91737 2710 ft 196 kts 356°
2026-04-22 11:55 42.81718 -87.91653 2712 ft 198 kts
2026-04-22 11:55 42.83086 -87.91455 2665 ft 198 kts
2026-04-22 11:55 42.84427 -87.91232 2470 ft 186 kts
2026-04-22 11:56 42.85665 -87.91021 2251 ft 172 kts
2026-04-22 11:56 42.86798 -87.90828 2062 ft 156 kts
2026-04-22 11:56 42.87844 -87.90651 1856 ft 148 kts
2026-04-22 11:56 42.88847 -87.90479 1676 ft 143 kts
2026-04-22 11:57 42.89820 -87.90296 1440 ft 140 kts
2026-04-22 11:57 42.90782 -87.90160 1202 ft 139 kts
2026-04-22 11:57 42.91731 -87.89992 963 ft 137 kts
2026-04-22 11:57 42.92669 -87.89835 826 ft 136 kts
2026-04-22 11:58 42.93593 -87.89669 689 ft 127 kts 359°
2026-04-22 11:58 42.94272 -87.89556 684 ft 58 kts
2026-04-22 11:58 42.94465 -87.89526 686 ft 20 kts
2026-04-22 11:58 42.94609 -87.89503 685 ft 22 kts
2026-04-22 11:59 42.94761 -87.89540 686 ft 23 kts 341°
2026-04-22 11:59 42.94873 -87.89593 688 ft 16 kts 349°
2026-04-22 11:59 42.94967 -87.89628 688 ft 14 kts 297°
2026-04-22 11:59 42.94977 -87.89765 682 ft 12 kts 286°
2026-04-22 12:00 42.94979 -87.89881 688 ft 11 kts 252°
2026-04-22 12:00 42.94944 -87.89963 683 ft 9 kts 212°
2026-04-22 12:00 42.94897 -87.90003 684 ft 6 kts 212°
2026-04-22 12:00 42.94863 -87.90002 685 ft 4 kts 147°
2026-04-22 12:01 42.94853 -87.89971 684 ft 3 kts 102°
2026-04-22 12:01 42.94851 -87.89945 684 ft 2 kts 95°
2026-04-22 12:01 42.94849 -87.89929 683 ft 1 kts 100°
2026-04-22 12:01 42.94848 -87.89919 684 ft 1 kts 100°
2026-04-22 12:02 42.94847 -87.89919 684 ft 0 kts 100°